Regional Weather Roundup
Issued by NWS

Home | Current Version | Previous Version | Graphics & Text | Print | Product List | Glossary On
Versions: 1 2 3 4 5 6 7 8 9 10 11 12 13 14 15 16 17 18 19 20 21 22 23 24 25 26 27 28 29 30 31 32 33 34 35 36 37 38 39 40 41 42 43 44 45 46 47 48 49 50
000
ASUS43 KMPX 181510
RWRMN
WEATHER ROUNDUP FOR MINNESOTA
NATIONAL WEATHER SERVICE TWIN CITIES/CHANHASSEN MN
1000 AM CDT FRI APR 18 2014


NOTE: "FAIR" INDICATES FEW OR NO CLOUDS BELOW 12,000 FEET WITH NO
SIGNIFICANT WEATHER AND/OR OBSTRUCTIONS TO VISIBILITY. N/A MEANS
CURRENT SKY AND/OR WEATHER CONDITIONS ARE NOT AVAILABLE.

MNZ060>063-068>070-181600-
   Twin Cities Metro

CITY           SKY/WX    TMP DP  RH WIND       PRES   REMARKS
TWIN CITIES    PTSUNNY   36  32  85 SE8       30.36F
ST PAUL        PTSUNNY   37  31  78 CALM      30.39S
CRYSTAL        CLOUDY    36  28  73 SE7       30.35F HAZE
BLAINE         PTSUNNY   27  30 100 E8        30.35F WCI  18
EDEN PRAIRIE   PTSUNNY   41  31  67 SE9       30.35F
LAKEVILLE      MOSUNNY   36  32  87 SE5       30.36S FOG
SOUTH ST PAUL  CLOUDY    39  33  78 CALM      30.37F
LAKE ELMO      PTSUNNY   37  32  81 E7        30.37F
$$
MNZ001>005-007-008-013>017-022>024-027-028-181600-
   Northwest Minnesota

CITY           SKY/WX    TMP DP  RH WIND       PRES   REMARKS
BEMIDJI        MOSUNNY   38  20  48 SE14      30.30S
HALLOCK        CLOUDY    39  18  41 SE14      30.28S
ROSEAU         SUNNY     39  18  41 SE12      30.31F
WARROAD        SUNNY     30  19  64 E5        30.33S WCI  25
THIEF RVR FALL PTSUNNY   37  21  52 E12       30.29S
CROOKSTON      CLOUDY    37  25  60 SE7       30.28S
FOSSTON        CLOUDY    37  21  52 SE10      30.29R
DETROIT LAKES  MOSUNNY   36  23  60 SE10      30.28S
MOORHEAD       MOSUNNY   39  28  65 SE8       30.27S
PARK RAPIDS    CLOUDY    34  22  61 E12       30.29F WCI  25
$$
MNZ006-009>011-018-025>026-181600-
   North Central Minnesota

CITY           SKY/WX    TMP DP  RH WIND       PRES   REMARKS
BAUDETTE         N/A     35  20  54 SE8       30.34F WCI  29
FLAG ISLAND    SUNNY     27  19  74 SE8       30.34S WCI  18
INTL FALLS     SUNNY     35  22  58 E8        30.36F WCI  29
WASKISH        SUNNY     39  21  48 SE12      30.33S
BIG FORK       SUNNY     39  18  41 E6        30.35F
LONGVILLE      PTSUNNY   37  21  52 SE6       30.32F
GRAND RAPIDS   SUNNY     36  16  44 E8        30.36S
CRANE LAKE     SUNNY     36  27  69 CALM      30.41S
ORR            SUNNY     36  18  48 SE6       30.35S
COOK           SUNNY     34  18  51 E5        30.38S WCI  30
$$
MNZ012-019>021-037-181600-
   Northeast Minnesota

CITY           SKY/WX    TMP DP  RH WIND       PRES   REMARKS
DULUTH         MOSUNNY   36  14  40 E5        30.37R
ELY            SUNNY     28  21  74 CALM      30.38F
HIBBING        SUNNY     38  15  39 E8        30.37R
EVELETH        SUNNY     36  19  51 NE7       30.38R
DULUTH HARBOR  SUNNY     32  27  80 CALM      30.43R
TWO HARBORS    SUNNY     36  19  51 CALM      30.37R
SILVER BAY     SUNNY     36  25  64 N6        30.37S
GRAND MARAIS     N/A     36  23  59 VRB5      30.40R
G MARAIS ARPRT MOSUNNY   30  18  59 N12       30.34S HAZE    WCI  21
$$
MNZ029>031-032-039>041-046>048-054>057-064-181600-
   West Central Minnesota

CITY           SKY/WX    TMP DP  RH WIND       PRES   REMARKS
FERGUS FALLS   PTSUNNY   39  18  41 SE17      30.25S
WHEATON        PTSUNNY   41  30  65 SE22      30.28S
MORRIS         MOSUNNY   37  28  70 SE20      30.27S
ALEXANDRIA     CLOUDY    35  24  64 SE12      30.30S WCI  27
ELBOW LAKE     CLOUDY    37  23  56 SE15G21   30.27S
WADENA         PTSUNNY   34  21  60 SE8       30.29F WCI  27
GLENWOOD       PTSUNNY   37  27  65 SE14      30.30S
APPLETON       PTSUNNY   37  28  70 SE12      30.28F
BENSON         PTSUNNY   37  28  70 S14       30.30R
ORTONVILLE     PTSUNNY   36  28  75 SE12      30.26F
MADISON        CLOUDY    37  32  81 SE15      30.27S
WILLMAR        FAIR      36  27  69 SE14      30.33R
$$
MNZ033>034-036-042>043-049>051-058-059-181600-
   Central Minnesota

CITY           SKY/WX    TMP DP  RH WIND       PRES   REMARKS
ST CLOUD       PTSUNNY   35  24  64 SE6       30.35S WCI  30
SAUK CENTRE    FAIR      35  26  69 E8        30.31F WCI  29
PAYNESVILLE    CLOUDY    37  25  62 SE9       30.32F
AITKIN         MOSUNNY   39  25  56 E10       30.33F
PINE RIVER     PTSUNNY   36  25  64 SE12      30.35F
BRAINERD       CLOUDY    40  22  48 E6        30.34S
STAPLES        CLOUDY    36  21  55 SE5       30.31F
LONG PRAIRIE   FAIR      36  25  64 SE10      30.31F
LITTLE FALLS   MOSUNNY   36  23  60 SE7       30.33F
LITCHFIELD     PTSUNNY   37  28  70 E8        30.33F
BUFFALO        MOSUNNY   37  27  67 E5        30.36R
MAPLE LAKE     PTSUNNY   37  28  70 E5        30.35S
$$
MNZ037-044-045-052-053-181600-
   East Central Minnesota

CITY           SKY/WX    TMP DP  RH WIND       PRES   REMARKS
PRINCETON      MOSUNNY   37  25  60 E5        30.36F
MORA           CLOUDY    36  27  69 E3        30.39S
CAMBRIDGE      PTSUNNY   39  27  60 E6        30.35F
RUSH CITY      CLOUDY    32  26  76 CALM      30.38F
MOOSE LAKE     CLOUDY    37  19  48 E6        30.36F
HINCKLEY       FAIR      34  27  75 E6        30.38F WCI  29
CLOQUET        SUNNY     36  18  48 CALM      30.38R
MCGREGOR       PTSUNNY   39  19  45 E10       30.36F
$$
MNZ071>073-080-081-089-090-097-098-181600-
   Southwest Minnesota

CITY           SKY/WX    TMP DP  RH WIND       PRES   REMARKS
MONTEVIDEO     PTSUNNY   36  30  80 S13       30.30F
GRANITE FALLS  CLOUDY    35  29  76 E12G17    30.31F WCI  27
CANBY          CLOUDY    35  32  90 SE12      30.26F WCI  26
MARSHALL       CLOUDY    36  28  75 SE13      30.26F
REDWOOD FALLS  PTSUNNY   38  31  76 SE13      30.31S
OLIVIA         CLOUDY    34  28  80 SE8       30.32R WCI  27
PIPESTONE      CLOUDY    37  32  81 S16       30.21S
WINDOM         CLOUDY    39  32  75 SE12      30.29S
WORTHINGTON    CLOUDY    39  28  65 SE16G23   30.27F
JACKSON        CLOUDY    37  32  81 SE13      30.30S
TRACY          CLOUDY    38  32  81 SE15      30.28S
SLAYTON        CLOUDY    36  32  87 SE16      30.26S FOG
$$
MNZ065>067-074>077-082>085-091>093-181600-
   South Central Minnesota

CITY           SKY/WX    TMP DP  RH WIND       PRES   REMARKS
MANKATO        CLOUDY    37  30  75 SE13      30.35S
NEW ULM        MOSUNNY   39  32  75 SE12      30.32S
ST JAMES       PTSUNNY   39  32  75 SE13      30.33S
FAIRMONT       PTSUNNY   37  28  70 SE15      30.33F
GLENCOE        PTSUNNY   40  29  65 E10       30.33F
FARIBAULT      PTSUNNY   41  27  56 E8        30.36S
OWATONNA       PTSUNNY   37  30  75 SE8       30.35S
WASECA         PTSUNNY   41  34  75 SE12      30.36F
ALBERT LEA     MOSUNNY   39  30  70 SE13      30.34F
$$
MNZ078>079-086>088-094>096-181600-
   Southeast Minnesota

CITY           SKY/WX    TMP DP  RH WIND       PRES   REMARKS
ROCHESTER      MOSUNNY   38  29  70 SE9       30.36S
RED WING       PTSUNNY   39  30  70 SE7       30.37S
STANTON        PTSUNNY   40  30  68 SE7       30.36R
DODGE CENTER   MOSUNNY   39  34  81 SE8       30.35S
WINONA         MOSUNNY   37  30  75 E5        30.39F
AUSTIN         MOSUNNY   39  30  70 SE9       30.35S
PRESTON        MOSUNNY   37  27  67 E6        30.37R
$$
ABBREVIATIONS USED IN REMARKS
   TC - TEMPERATURES IN CELSIUS
  WCI - WIND CHILL INDEX
   HX - HEAT INDEX
  VSB - VISIBILITY
$$


USA.gov is the U.S. government's official web portal to all federal, state and local government web resources and services.